,,,PA_Meas_PMT16A,,PR_Meas_QMR101_102,,RH_Meas_QMH101,,SR_Meas_QMS101,,TA_Meas_QMH101,,GenWind,,GenWind,
date,time,status,PA,status,PR,status,RH,status,SR,status,TA,status,DirAvg,status,SpdAvg,
2011-09-14, 00:00:04,VALID,1010.275,VALID,0.0,VALID,104.0,VALID,0.106,VALID,22.447,VALID,94.0,VALID,1.259,
2011-09-14, 00:01:04,VALID,1010.268,VALID,0.0,VALID,104.0,VALID,0.0,VALID,22.428,VALID,94.0,VALID,0.674,
2011-09-14, 00:02:04,VALID,1010.243,VALID,0.0,VALID,104.0,VALID,0.0,VALID,22.407,VALID,93.0,VALID,0.948,
2011-09-14, 00:03:04,VALID,1010.241,VALID,0.0,VALID,104.0,VALID,0.106,VALID,22.447,VALID,97.0,VALID,1.192,
2011-09-14, 00:04:04,VALID,1010.227,VALID,0.0,VALID,104.0,VALID,0.0,VALID,22.428,VALID,93.0,VALID,1.031,
2011-09-14, 00:05:04,VALID,1010.201,VALID,0.0,VALID,104.0,VALID,0.0,VALID,22.449,VALID,101.0,VALID,0.741,
2011-09-14, 00:06:04,VALID,1010.218,VALID,0.0,VALID,104.0,VALID,0.106,VALID,22.428,VALID,109.0,VALID,1.247,
2011-09-14, 00:07:04,VALID,1010.184,VALID,0.0,VALID,104.0,VALID,0.106,VALID,22.428,VALID,97.0,VALID,0.908,
2011-09-14, 00:08:04,VALID,1010.183,VALID,0.0,VALID,104.0,VALID,0.0,VALID,22.407,VALID,92.0,VALID,0.812,
2011-09-14, 00:09:04,VALID,1010.155,VALID,0.0,VALID,104.0,VALID,0.0,VALID,22.428,VALID,97.0,VALID,0.984,
2011-09-14, 00:10:04,VALID,1010.17,VALID,0.0,VALID,104.0,VALID,0.0,VALID,22.408,VALID,92.0,VALID,1.148,
2011-09-14, 00:11:04,VALID,1010.165,VALID,0.0,VALID,104.0,VALID,0.0,VALID,22.408,VALID,95.0,VALID,0.668,
2011-09-14, 00:12:04,VALID,1010.132,VALID,0.0,VALID,104.0,VALID,0.0,VALID,22.428,VALID,108.0,VALID,0.813,
2011-09-14, 00:13:04,VALID,1010.127,VALID,0.0,VALID,104.0,VALID,0.0,VALID,22.428,VALID,107.0,VALID,0.839,
2011-09-14, 00:14:04,VALID,1010.116,VALID,0.0,VALID,104.0,VALID,0.0,VALID,22.428,VALID,71.0,VALID,0.918,
2011-09-14, 00:15:04,VALID,1010.11,VALID,0.0,VALID,104.0,VALID,0.0,VALID,22.428,VALID,100.0,VALID,0.762,
2011-09-14, 00:16:04,VALID,1010.128,VALID,0.0,VALID,104.0,VALID,0.0,VALID,22.408,VALID,96.0,VALID,0.941,
2011-09-14, 00:17:04,VALID,1010.083,VALID,0.0,VALID,104.0,VALID,0.0,VALID,22.408,VALID,96.0,VALID,1.057,
2011-09-14, 00:18:04,VALID,1010.072,VALID,0.0,VALID,104.0,VALID,0.106,VALID,22.408,VALID,99.0,VALID,0.931,
2011-09-14, 00:19:04,VALID,1010.04,VALID,0.0,VALID,104.0,VALID,0.0,VALID,22.408,VALID,96.0,VALID,1.013,
2011-09-14, 00:20:04,VALID,1010.049,VALID,0.0,VALID,104.0,VALID,0.0,VALID,22.428,VALID,88.0,VALID,0.575,
2011-09-14, 00:21:04,VALID,1010.036,VALID,0.0,VALID,104.0,VALID,0.0,VALID,22.429,VALID,95.0,VALID,0.81,
2011-09-14, 00:22:04,VALID,1010.035,VALID,0.0,VALID,104.0,VALID,0.0,VALID,22.429,VALID,99.0,VALID,0.939,
2011-09-14, 00:23:04,VALID,1010.034,VALID,0.0,VALID,104.0,VALID,0.0,VALID,22.429,VALID,88.0,VALID,1.457,
2011-09-14, 00:24:04,VALID,1010.024,VALID,0.0,VALID,104.0,VALID,0.0,VALID,22.389,VALID,86.0,VALID,1.242,
2011-09-14, 00:25:04,VALID,1010.002,VALID,0.0,VALID,104.0,VALID,0.0,VALID,22.408,VALID,98.0,VALID,1.117,
2011-09-14, 00:26:04,VALID,1009.97,VALID,0.0,VALID,104.0,VALID,0.0,VALID,22.408,VALID,100.0,VALID,0.899,
2011-09-14, 00:27:04,VALID,1009.981,VALID,0.0,VALID,104.0,VALID,0.0,VALID,22.408,VALID,97.0,VALID,0.983,
2011-09-14, 00:28:04,VALID,1009.996,VALID,0.0,VALID,104.0,VALID,0.0,VALID,22.429,VALID,103.0,VALID,1.05,
2011-09-14, 00:29:04,VALID,1009.948,VALID,0.0,VALID,104.0,VALID,0.0,VALID,22.428,VALID,111.0,VALID,0.677,
2011-09-14, 00:30:04,VALID,1009.95,VALID,0.0,VALID,104.0,VALID,0.0,VALID,22.428,VALID,122.0,VALID,0.569,
2011-09-14, 00:31:04,VALID,1009.921,VALID,0.0,VALID,104.0,VALID,0.0,VALID,22.429,VALID,124.0,VALID,1.538,
2011-09-14, 00:32:04,VALID,1009.923,VALID,0.0,VALID,104.0,VALID,0.0,VALID,22.41,VALID,131.0,VALID,1.24,
2011-09-14, 00:33:04,VALID,1009.902,VALID,0.0,VALID,104.0,VALID,0.0,VALID,22.408,VALID,121.0,VALID,0.967,
2011-09-14, 00:34:04,VALID,1009.868,VALID,0.0,VALID,104.0,VALID,0.0,VALID,22.408,VALID,116.0,VALID,0.864,
2011-09-14, 00:35:04,VALID,1009.856,VALID,0.0,VALID,104.0,VALID,0.106,VALID,22.387,VALID,117.0,VALID,1.022,
2011-09-14, 00:36:04,VALID,1009.82,VALID,0.0,VALID,104.0,VALID,0.106,VALID,22.407,VALID,136.0,VALID,0.876,
2011-09-14, 00:37:04,VALID,1009.791,VALID,0.0,VALID,104.0,VALID,0.212,VALID,22.407,VALID,120.0,VALID,1.06,
2011-09-14, 00:38:04,VALID,1009.786,VALID,0.0,VALID,104.0,VALID,0.106,VALID,22.407,VALID,124.0,VALID,1.268,
2011-09-14, 00:39:04,VALID,1009.775,VALID,0.0,VALID,104.0,VALID,0.106,VALID,22.407,VALID,134.0,VALID,1.24,
2011-09-14, 00:40:04,VALID,1009.764,VALID,0.0,VALID,104.0,VALID,0.106,VALID,22.408,VALID,115.0,VALID,0.938,
2011-09-14, 00:41:04,VALID,1009.752,VALID,0.0,VALID,104.0,VALID,0.106,VALID,22.428,VALID,120.0,VALID,0.625,
2011-09-14, 00:42:04,VALID,1009.715,VALID,0.0,VALID,104.0,VALID,0.106,VALID,22.428,VALID,106.0,VALID,1.364,
2011-09-14, 00:43:04,VALID,1009.737,VALID,0.0,VALID,104.0,VALID,0.106,VALID,22.447,VALID,116.0,VALID,1.14,
2011-09-14, 00:44:04,VALID,1009.717,VALID,0.0,VALID,104.0,VALID,0.106,VALID,22.445,VALID,101.0,VALID,1.645,
2011-09-14, 00:45:04,VALID,1009.667,VALID,0.0,VALID,104.0,VALID,0.106,VALID,22.426,VALID,115.0,VALID,1.011,
2011-09-14, 00:46:04,VALID,1009.672,VALID,0.0,VALID,104.0,VALID,0.106,VALID,22.445,VALID,97.0,VALID,0.85,
2011-09-14, 00:47:04,VALID,1009.668,VALID,0.0,VALID,104.0,VALID,0.106,VALID,22.445,VALID,115.0,VALID,0.537,
2011-09-14, 00:48:04,VALID,1009.646,VALID,0.0,VALID,104.0,VALID,0.106,VALID,22.445,VALID,86.0,VALID,0.892,
2011-09-14, 00:49:04,VALID,1009.638,VALID,0.0,VALID,104.0,VALID,0.106,VALID,22.467,VALID,103.0,VALID,0.769,
2011-09-14, 00:50:04,VALID,1009.623,VALID,0.0,VALID,104.0,VALID,0.106,VALID,22.467,VALID,83.0,VALID,1.201,
2011-09-14, 00:51:04,VALID,1009.627,VALID,0.0,VALID,104.0,VALID,0.106,VALID,22.445,VALID,116.0,VALID,0.905,
2011-09-14, 00:52:04,VALID,1009.628,VALID,0.0,VALID,104.0,VALID,0.106,VALID,22.467,VALID,99.0,VALID,1.345,
2011-09-14, 00:53:04,VALID,1009.614,VALID,0.0,VALID,104.0,VALID,0.106,VALID,22.486,VALID,117.0,VALID,0.79,
2011-09-14, 00:54:04,VALID,1009.589,VALID,0.0,VALID,104.0,VALID,0.106,VALID,22.445,VALID,124.0,VALID,1.201,
2011-09-14, 00:55:04,VALID,1009.599,VALID,0.0,VALID,104.0,VALID,0.106,VALID,22.467,VALID,123.0,VALID,1.322,
2011-09-14, 00:56:04,VALID,1009.603,VALID,0.0,VALID,104.0,VALID,0.106,VALID,22.445,VALID,113.0,VALID,0.888,
2011-09-14, 00:57:04,VALID,1009.603,VALID,0.0,VALID,104.0,VALID,0.106,VALID,22.426,VALID,129.0,VALID,1.267,
2011-09-14, 00:58:04,VALID,1009.627,VALID,0.0,VALID,104.0,VALID,0.106,VALID,22.426,VALID,131.0,VALID,1.348,
2011-09-14, 00:59:04,VALID,1009.608,VALID,0.0,VALID,104.0,VALID,0.106,VALID,22.445,VALID,122.0,VALID,0.956,
2011-09-14, 01:00:04,VALID,1009.572,VALID,0.0,VALID,104.0,VALID,0.106,VALID,22.445,VALID,116.0,VALID,1.295,
2011-09-14, 01:01:04,VALID,1009.557,VALID,0.0,VALID,104.0,VALID,0.212,VALID,22.467,VALID,109.0,VALID,0.911,
2011-09-14, 01:02:04,VALID,1009.582,VALID,0.0,VALID,104.0,VALID,0.106,VALID,22.467,VALID,123.0,VALID,1.573,
2011-09-14, 01:03:04,VALID,1009.544,VALID,0.0,VALID,104.0,VALID,0.106,VALID,22.445,VALID,135.0,VALID,1.155,
2011-09-14, 01:04:04,VALID,1009.555,VALID,0.0,VALID,104.0,VALID,0.106,VALID,22.467,VALID,135.0,VALID,0.964,
2011-09-14, 01:05:04,VALID,1009.551,VALID,0.0,VALID,104.0,VALID,0.0,VALID,22.447,VALID,122.0,VALID,0.983,
2011-09-14, 01:06:04,VALID,1009.564,VALID,0.0,VALID,104.0,VALID,0.0,VALID,22.468,VALID,103.0,VALID,1.043,
2011-09-14, 01:07:04,VALID,1009.543,VALID,0.0,VALID,104.0,VALID,0.0,VALID,22.468,VALID,123.0,VALID,1.237,
2011-09-14, 01:08:04,VALID,1009.56,VALID,0.0,VALID,104.0,VALID,0.0,VALID,22.468,VALID,113.0,VALID,0.641,
2011-09-14, 01:09:04,VALID,1009.545,VALID,0.0,VALID,104.0,VALID,0.0,VALID,22.468,VALID,119.0,VALID,0.888,
2011-09-14, 01:10:04,VALID,1009.545,VALID,0.0,VALID,104.0,VALID,0.0,VALID,22.447,VALID,130.0,VALID,0.79,
2011-09-14, 01:11:04,VALID,1009.56,VALID,0.0,VALID,104.0,VALID,0.0,VALID,22.467,VALID,106.0,VALID,1.343,
2011-09-14, 01:12:04,VALID,1009.529,VALID,0.0,VALID,104.0,VALID,0.0,VALID,22.468,VALID,88.0,VALID,0.948,
2011-09-14, 01:13:04,VALID,1009.537,VALID,0.0,VALID,104.0,VALID,0.0,VALID,22.507,VALID,117.0,VALID,0.67,
2011-09-14, 01:14:04,VALID,1009.509,VALID,0.0,VALID,104.0,VALID,0.0,VALID,22.488,VALID,104.0,VALID,0.939,
2011-09-14, 01:15:04,VALID,1009.507,VALID,0.0,VALID,104.0,VALID,0.0,VALID,22.468,VALID,93.0,VALID,1.577,
2011-09-14, 01:16:04,VALID,1009.486,VALID,0.0,VALID,104.0,VALID,0.0,VALID,22.468,VALID,94.0,VALID,1.136,
2011-09-14, 01:17:04,VALID,1009.512,VALID,0.0,VALID,104.0,VALID,0.0,VALID,22.467,VALID,72.0,VALID,0.973,
2011-09-14, 01:18:04,VALID,1009.494,VALID,0.0,VALID,104.0,VALID,0.0,VALID,22.468,VALID,97.0,VALID,1.096,
2011-09-14, 01:19:04,VALID,1009.495,VALID,0.0,VALID,104.0,VALID,0.0,VALID,22.468,VALID,95.0,VALID,1.253,
2011-09-14, 01:20:04,VALID,1009.532,VALID,0.0,VALID,104.0,VALID,0.0,VALID,22.486,VALID,108.0,VALID,1.132,
2011-09-14, 01:21:04,VALID,1009.513,VALID,0.0,VALID,104.0,VALID,0.0,VALID,22.507,VALID,103.0,VALID,0.609,
2011-09-14, 01:22:04,VALID,1009.493,VALID,0.0,VALID,104.0,VALID,0.0,VALID,22.507,VALID,106.0,VALID,0.796,
2011-09-14, 01:23:04,VALID,1009.494,VALID,0.0,VALID,104.0,VALID,0.0,VALID,22.507,VALID,94.0,VALID,0.584,
2011-09-14, 01:24:04,VALID,1009.497,VALID,0.0,VALID,104.0,VALID,0.0,VALID,22.507,VALID,79.0,VALID,1.282,
2011-09-14, 01:25:04,VALID,1009.478,VALID,0.0,VALID,104.0,VALID,0.0,VALID,22.488,VALID,89.0,VALID,1.043,
2011-09-14, 01:26:04,VALID,1009.469,VALID,0.0,VALID,104.0,VALID,0.0,VALID,22.467,VALID,109.0,VALID,1.425,
2011-09-14, 01:27:04,VALID,1009.473,VALID,0.0,VALID,104.0,VALID,0.0,VALID,22.486,VALID,100.0,VALID,0.93,
2011-09-14, 01:28:04,VALID,1009.471,VALID,0.0,VALID,104.0,VALID,0.0,VALID,22.486,VALID,126.0,VALID,0.795,
2011-09-14, 01:29:04,VALID,1009.454,VALID,0.0,VALID,104.0,VALID,0.0,VALID,22.507,VALID,102.0,VALID,1.198,
2011-09-14, 01:30:04,VALID,1009.446,VALID,0.0,VALID,104.0,VALID,0.0,VALID,22.467,VALID,112.0,VALID,0.949,
2011-09-14, 01:31:04,VALID,1009.448,VALID,0.0,VALID,104.0,VALID,0.0,VALID,22.486,VALID,127.0,VALID,1.104,
2011-09-14, 01:32:04,VALID,1009.441,VALID,0.0,VALID,104.0,VALID,0.0,VALID,22.488,VALID,126.0,VALID,1.288,
2011-09-14, 01:33:04,VALID,1009.449,VALID,0.0,VALID,104.0,VALID,0.0,VALID,22.467,VALID,115.0,VALID,0.935,
2011-09-14, 01:34:04,VALID,1009.465,VALID,0.0,VALID,104.0,VALID,0.0,VALID,22.488,VALID,120.0,VALID,1.362,
2011-09-14, 01:35:04,VALID,1009.466,VALID,0.0,VALID,104.0,VALID,0.0,VALID,22.506,VALID,113.0,VALID,0.758,
2011-09-14, 01:36:04,VALID,1009.448,VALID,0.0,VALID,104.0,VALID,0.106,VALID,22.506,VALID,123.0,VALID,1.263,
2011-09-14, 01:37:04,VALID,1009.458,VALID,0.0,VALID,104.0,VALID,0.106,VALID,22.465,VALID,129.0,VALID,1.159,
2011-09-14, 01:38:04,VALID,1009.47,VALID,0.0,VALID,104.0,VALID,0.106,VALID,22.486,VALID,92.0,VALID,0.688,
2011-09-14, 01:39:04,VALID,1009.502,VALID,0.0,VALID,104.0,VALID,0.106,VALID,22.484,VALID,114.0,VALID,0.959,
2011-09-14, 01:40:04,VALID,1009.51,VALID,0.0,VALID,104.0,VALID,0.106,VALID,22.484,VALID,112.0,VALID,1.064,
2011-09-14, 01:41:04,VALID,1009.533,VALID,0.0,VALID,104.0,VALID,0.106,VALID,22.486,VALID,100.0,VALID,1.546,
2011-09-14, 01:42:04,VALID,1009.546,VALID,0.0,VALID,104.0,VALID,0.106,VALID,22.506,VALID,85.0,VALID,1.032,
2011-09-14, 01:43:04,VALID,1009.55,VALID,0.0,VALID,104.0,VALID,0.106,VALID,22.506,VALID,94.0,VALID,1.219,
2011-09-14, 01:44:04,VALID,1009.536,VALID,0.0,VALID,104.0,VALID,0.106,VALID,22.484,VALID,100.0,VALID,0.868,
2011-09-14, 01:45:04,VALID,1009.545,VALID,0.0,VALID,104.0,VALID,0.106,VALID,22.484,VALID,109.0,VALID,1.056,
2011-09-14, 01:46:04,VALID,1009.572,VALID,0.0,VALID,104.0,VALID,0.106,VALID,22.484,VALID,94.0,VALID,1.073,
2011-09-14, 01:47:04,VALID,1009.535,VALID,0.0,VALID,104.0,VALID,0.106,VALID,22.484,VALID,90.0,VALID,0.985,
2011-09-14, 01:48:04,VALID,1009.522,VALID,0.0,VALID,104.0,VALID,0.106,VALID,22.506,VALID,90.0,VALID,1.678,
2011-09-14, 01:49:04,VALID,1009.511,VALID,0.0,VALID,104.0,VALID,0.106,VALID,22.484,VALID,96.0,VALID,1.72,
2011-09-14, 01:50:04,VALID,1009.52,VALID,0.0,VALID,104.0,VALID,0.0,VALID,22.486,VALID,80.0,VALID,1.149,
2011-09-14, 01:51:04,VALID,1009.535,VALID,0.0,VALID,104.0,VALID,0.0,VALID,22.506,VALID,107.0,VALID,0.877,
2011-09-14, 01:52:04,VALID,1009.543,VALID,0.0,VALID,104.0,VALID,0.0,VALID,22.527,VALID,89.0,VALID,0.96,
2011-09-14, 01:53:04,VALID,1009.564,VALID,0.0,VALID,104.0,VALID,0.0,VALID,22.507,VALID,82.0,VALID,1.025,
2011-09-14, 01:54:04,VALID,1009.558,VALID,0.0,VALID,104.0,VALID,0.0,VALID,22.507,VALID,74.0,VALID,1.257,
2011-09-14, 01:55:04,VALID,1009.541,VALID,0.0,VALID,104.0,VALID,0.0,VALID,22.507,VALID,52.0,VALID,1.338,
2011-09-14, 01:56:04,VALID,1009.573,VALID,0.0,VALID,104.0,VALID,0.0,VALID,22.467,VALID,68.0,VALID,1.447,
2011-09-14, 01:57:04,VALID,1009.584,VALID,0.0,VALID,104.0,VALID,0.0,VALID,22.488,VALID,85.0,VALID,0.981,
2011-09-14, 01:58:04,VALID,1009.592,VALID,0.0,VALID,104.0,VALID,0.0,VALID,22.488,VALID,71.0,VALID,1.291,
2011-09-14, 01:59:04,VALID,1009.599,VALID,0.0,VALID,104.0,VALID,0.0,VALID,22.488,VALID,69.0,VALID,1.7,
2011-09-14, 02:00:04,VALID,1009.602,VALID,0.0,VALID,104.0,VALID,0.0,VALID,22.467,VALID,61.0,VALID,1.491,
2011-09-14, 02:01:04,VALID,1009.574,VALID,0.0,VALID,104.0,VALID,0.0,VALID,22.467,VALID,80.0,VALID,1.379,
2011-09-14, 02:02:04,VALID,1009.573,VALID,0.0,VALID,104.0,VALID,0.0,VALID,22.467,VALID,107.0,VALID,1.085,
2011-09-14, 02:03:04,VALID,1009.578,VALID,0.0,VALID,104.0,VALID,0.0,VALID,22.468,VALID,72.0,VALID,1.26,
2011-09-14, 02:04:04,VALID,1009.58,VALID,0.0,VALID,104.0,VALID,0.0,VALID,22.468,VALID,87.0,VALID,1.017,
2011-09-14, 02:05:04,VALID,1009.561,VALID,0.0,VALID,104.0,VALID,0.0,VALID,22.467,VALID,62.0,VALID,1.072,
2011-09-14, 02:06:04,VALID,1009.596,VALID,0.0,VALID,104.0,VALID,0.0,VALID,22.447,VALID,79.0,VALID,0.904,
2011-09-14, 02:07:04,VALID,1009.57,VALID,0.0,VALID,104.0,VALID,0.0,VALID,22.468,VALID,66.0,VALID,1.194,
2011-09-14, 02:08:04,VALID,1009.549,VALID,0.0,VALID,104.0,VALID,0.0,VALID,22.468,VALID,64.0,VALID,1.454,
2011-09-14, 02:09:04,VALID,1009.536,VALID,0.0,VALID,104.0,VALID,0.0,VALID,22.428,VALID,118.0,VALID,1.059,
2011-09-14, 02:10:04,VALID,1009.528,VALID,0.0,VALID,104.0,VALID,0.0,VALID,22.428,VALID,80.0,VALID,1.489,
2011-09-14, 02:11:04,VALID,1009.5,VALID,0.0,VALID,104.0,VALID,0.0,VALID,22.447,VALID,93.0,VALID,0.994,
2011-09-14, 02:12:04,VALID,1009.493,VALID,0.0,VALID,104.0,VALID,0.0,VALID,22.428,VALID,63.0,VALID,1.228,
2011-09-14, 02:13:04,VALID,1009.49,VALID,0.0,VALID,104.0,VALID,0.0,VALID,22.447,VALID,85.0,VALID,1.002,
2011-09-14, 02:14:04,VALID,1009.497,VALID,0.0,VALID,104.0,VALID,0.0,VALID,22.428,VALID,75.0,VALID,1.541,
2011-09-14, 02:15:04,VALID,1009.456,VALID,0.0,VALID,104.0,VALID,0.0,VALID,22.447,VALID,80.0,VALID,0.794,
2011-09-14, 02:16:04,VALID,1009.464,VALID,0.0,VALID,104.0,VALID,0.0,VALID,22.447,VALID,69.0,VALID,0.806,
2011-09-14, 02:17:04,VALID,1009.434,VALID,0.0,VALID,104.0,VALID,0.0,VALID,22.447,VALID,65.0,VALID,0.989,
2011-09-14, 02:18:04,VALID,1009.448,VALID,0.0,VALID,104.0,VALID,0.0,VALID,22.449,VALID,68.0,VALID,0.731,
2011-09-14, 02:19:04,VALID,1009.427,VALID,0.0,VALID,104.0,VALID,0.0,VALID,22.447,VALID,66.0,VALID,0.886,
2011-09-14, 02:20:04,VALID,1009.413,VALID,0.0,VALID,104.0,VALID,0.0,VALID,22.468,VALID,75.0,VALID,0.694,
2011-09-14, 02:21:04,VALID,1009.418,VALID,0.0,VALID,104.0,VALID,0.0,VALID,22.468,VALID,89.0,VALID,0.645,
2011-09-14, 02:22:04,VALID,1009.427,VALID,0.0,VALID,104.0,VALID,0.0,VALID,22.467,VALID,88.0,VALID,0.514,
2011-09-14, 02:23:04,VALID,1009.421,VALID,0.0,VALID,104.0,VALID,0.0,VALID,22.488,VALID,87.0,VALID,0.689,
2011-09-14, 02:24:04,VALID,1009.392,VALID,0.0,VALID,104.0,VALID,0.0,VALID,22.467,VALID,92.0,VALID,1.028,
2011-09-14, 02:25:04,VALID,1009.39,VALID,0.0,VALID,104.0,VALID,0.0,VALID,22.467,VALID,94.0,VALID,0.594,
2011-09-14, 02:26:04,VALID,1009.374,VALID,0.0,VALID,104.0,VALID,0.0,VALID,22.488,VALID,84.0,VALID,1.015,
2011-09-14, 02:27:04,VALID,1009.362,VALID,0.0,VALID,104.0,VALID,0.0,VALID,22.488,VALID,109.0,VALID,0.628,
2011-09-14, 02:28:04,VALID,1009.363,VALID,0.0,VALID,104.0,VALID,0.0,VALID,22.488,VALID,111.0,VALID,0.482,
2011-09-14, 02:29:05,VALID,1009.331,VALID,0.0,VALID,104.0,VALID,0.0,VALID,22.486,VALID,111.0,VALID,0.592,
2011-09-14, 02:30:05,VALID,1009.31,VALID,0.0,VALID,104.0,VALID,0.0,VALID,22.506,VALID,111.0,VALID,0.6,
2011-09-14, 02:31:05,VALID,1009.309,VALID,0.0,VALID,104.0,VALID,0.0,VALID,22.486,VALID,111.0,VALID,0.302,
2011-09-14, 02:32:05,VALID,1009.3,VALID,0.0,VALID,104.0,VALID,0.0,VALID,22.507,VALID,111.0,VALID,0.05,
2011-09-14, 02:33:05,VALID,1009.314,VALID,0.0,VALID,104.0,VALID,0.0,VALID,22.507,VALID,111.0,VALID,0.568,
2011-09-14, 02:34:05,VALID,1009.307,VALID,0.0,VALID,104.0,VALID,0.0,VALID,22.507,VALID,111.0,VALID,0.323,
2011-09-14, 02:35:05,VALID,1009.298,VALID,0.0,VALID,104.0,VALID,0.0,VALID,22.486,VALID,111.0,VALID,0.385,
2011-09-14, 02:36:05,VALID,1009.349,VALID,0.0,VALID,104.0,VALID,0.0,VALID,22.486,VALID,112.0,VALID,0.404,
2011-09-14, 02:37:05,VALID,1009.348,VALID,0.0,VALID,104.0,VALID,0.0,VALID,22.486,VALID,115.0,VALID,0.758,
2011-09-14, 02:38:05,VALID,1009.366,VALID,0.0,VALID,104.0,VALID,0.0,VALID,22.488,VALID,115.0,VALID,0.596,
2011-09-14, 02:39:05,VALID,1009.402,VALID,0.0,VALID,104.0,VALID,0.0,VALID,22.507,VALID,103.0,VALID,0.786,
2011-09-14, 02:40:05,VALID,1009.387,VALID,0.0,VALID,104.0,VALID,0.0,VALID,22.467,VALID,99.0,VALID,0.715,
2011-09-14, 02:41:05,VALID,1009.416,VALID,0.0,VALID,104.0,VALID,0.0,VALID,22.488,VALID,88.0,VALID,0.4,
2011-09-14, 02:42:05,VALID,1009.387,VALID,0.0,VALID,104.0,VALID,0.0,VALID,22.488,VALID,142.0,VALID,0.5,
2011-09-14, 02:43:05,VALID,1009.446,VALID,0.0,VALID,104.0,VALID,0.0,VALID,22.486,VALID,142.0,VALID,0.498,
2011-09-14, 02:44:05,VALID,1009.444,VALID,0.0,VALID,104.0,VALID,0.0,VALID,22.507,VALID,142.0,VALID,0.474,
2011-09-14, 02:45:05,VALID,1009.459,VALID,0.0,VALID,104.0,VALID,0.0,VALID,22.467,VALID,141.0,VALID,0.895,
2011-09-14, 02:46:05,VALID,1009.481,VALID,0.0,VALID,104.0,VALID,0.0,VALID,22.486,VALID,138.0,VALID,0.487,
2011-09-14, 02:47:05,VALID,1009.513,VALID,0.0,VALID,104.0,VALID,0.0,VALID,22.488,VALID,85.0,VALID,0.932,
2011-09-14, 02:48:05,VALID,1009.505,VALID,0.0,VALID,104.0,VALID,0.0,VALID,22.488,VALID,96.0,VALID,0.848,
2011-09-14, 02:49:05,VALID,1009.528,VALID,0.0,VALID,104.0,VALID,0.0,VALID,22.488,VALID,96.0,VALID,0.888,
2011-09-14, 02:50:05,VALID,1009.516,VALID,0.0,VALID,104.0,VALID,0.0,VALID,22.486,VALID,93.0,VALID,0.654,
2011-09-14, 02:51:05,VALID,1009.515,VALID,0.0,VALID,104.0,VALID,0.0,VALID,22.486,VALID,93.0,VALID,0.677,
2011-09-14, 02:52:05,VALID,1009.496,VALID,0.0,VALID,104.0,VALID,0.0,VALID,22.486,VALID,92.0,VALID,0.473,
2011-09-14, 02:53:05,VALID,1009.478,VALID,0.0,VALID,104.0,VALID,0.0,VALID,22.507,VALID,91.0,VALID,0.611,
2011-09-14, 02:54:05,VALID,1009.488,VALID,0.0,VALID,104.0,VALID,0.0,VALID,22.507,VALID,92.0,VALID,0.716,
2011-09-14, 02:55:05,VALID,1009.443,VALID,0.0,VALID,104.0,VALID,0.0,VALID,22.467,VALID,91.0,VALID,0.465,
2011-09-14, 02:56:05,VALID,1009.434,VALID,0.0,VALID,104.0,VALID,0.0,VALID,22.507,VALID,91.0,VALID,0.375,
2011-09-14, 02:57:05,VALID,1009.409,VALID,0.0,VALID,104.0,VALID,0.0,VALID,22.486,VALID,87.0,VALID,0.694,
2011-09-14, 02:58:05,VALID,1009.425,VALID,0.0,VALID,104.0,VALID,0.0,VALID,22.486,VALID,90.0,VALID,0.314,
2011-09-14, 02:59:05,VALID,1009.403,VALID,0.0,VALID,104.0,VALID,0.0,VALID,22.486,VALID,108.0,VALID,0.652,
2011-09-14, 03:00:05,VALID,1009.413,VALID,0.0,VALID,104.0,VALID,0.0,VALID,22.486,VALID,108.0,VALID,0.377,
2011-09-14, 03:01:05,VALID,1009.453,VALID,0.0,VALID,104.0,VALID,0.0,VALID,22.507,VALID,108.0,VALID,0.31,
2011-09-14, 03:02:05,VALID,1009.464,VALID,0.0,VALID,104.0,VALID,0.0,VALID,22.507,VALID,108.0,VALID,0.577,
2011-09-14, 03:03:05,VALID,1009.463,VALID,0.0,VALID,104.0,VALID,0.0,VALID,22.486,VALID,86.0,VALID,0.78,
2011-09-14, 03:04:05,VALID,1009.498,VALID,0.0,VALID,104.0,VALID,0.0,VALID,22.488,VALID,101.0,VALID,0.873,
2011-09-14, 03:05:05,VALID,1009.52,VALID,0.0,VALID,104.0,VALID,0.106,VALID,22.506,VALID,99.0,VALID,0.95,
2011-09-14, 03:06:05,VALID,1009.474,VALID,0.0,VALID,104.0,VALID,0.106,VALID,22.486,VALID,94.0,VALID,1.587,
2011-09-14, 03:07:05,VALID,1009.504,VALID,0.0,VALID,104.0,VALID,0.0,VALID,22.486,VALID,92.0,VALID,0.763,
2011-09-14, 03:08:05,VALID,1009.516,VALID,0.0,VALID,104.0,VALID,0.106,VALID,22.486,VALID,92.0,VALID,0.521,
2011-09-14, 03:09:05,VALID,1009.524,VALID,0.0,VALID,104.0,VALID,0.0,VALID,22.506,VALID,96.0,VALID,0.691,
2011-09-14, 03:10:05,VALID,1009.487,VALID,0.0,VALID,104.0,VALID,0.106,VALID,22.486,VALID,96.0,VALID,0.662,
2011-09-14, 03:11:05,VALID,1009.493,VALID,0.0,VALID,104.0,VALID,0.106,VALID,22.486,VALID,95.0,VALID,0.998,
2011-09-14, 03:12:05,VALID,1009.476,VALID,0.0,VALID,104.0,VALID,0.106,VALID,22.486,VALID,98.0,VALID,0.603,
2011-09-14, 03:13:05,VALID,1009.458,VALID,0.0,VALID,104.0,VALID,0.106,VALID,22.486,VALID,97.0,VALID,0.697,
2011-09-14, 03:14:05,VALID,1009.465,VALID,0.0,VALID,104.0,VALID,0.106,VALID,22.484,VALID,98.0,VALID,0.298,
2011-09-14, 03:15:05,VALID,1009.482,VALID,0.0,VALID,104.0,VALID,0.106,VALID,22.506,VALID,127.0,VALID,0.87,
2011-09-14, 03:16:05,VALID,1009.472,VALID,0.0,VALID,104.0,VALID,0.106,VALID,22.525,VALID,125.0,VALID,0.792,
2011-09-14, 03:17:05,VALID,1009.457,VALID,0.0,VALID,104.0,VALID,0.106,VALID,22.506,VALID,124.0,VALID,0.57,
2011-09-14, 03:18:05,VALID,1009.482,VALID,0.0,VALID,104.0,VALID,0.106,VALID,22.525,VALID,124.0,VALID,0.339,
2011-09-14, 03:19:05,VALID,1009.493,VALID,0.0,VALID,104.0,VALID,0.106,VALID,22.525,VALID,124.0,VALID,0.471,
2011-09-14, 03:20:05,VALID,1009.494,VALID,0.0,VALID,104.0,VALID,0.0,VALID,22.506,VALID,124.0,VALID,0.374,
2011-09-14, 03:21:05,VALID,1009.493,VALID,0.0,VALID,104.0,VALID,0.0,VALID,22.527,VALID,141.0,VALID,0.693,
2011-09-14, 03:22:05,VALID,1009.501,VALID,0.0,VALID,104.0,VALID,0.0,VALID,22.527,VALID,117.0,VALID,0.848,
2011-09-14, 03:23:05,VALID,1009.505,VALID,0.0,VALID,104.0,VALID,0.0,VALID,22.507,VALID,118.0,VALID,0.614,
2011-09-14, 03:24:05,VALID,1009.497,VALID,0.0,VALID,104.0,VALID,0.0,VALID,22.507,VALID,118.0,VALID,0.392,
2011-09-14, 03:25:05,VALID,1009.492,VALID,0.0,VALID,104.0,VALID,0.0,VALID,22.527,VALID,118.0,VALID,0.207,
2011-09-14, 03:26:05,VALID,1009.493,VALID,0.0,VALID,104.0,VALID,0.0,VALID,22.527,VALID,118.0,VALID,0.65,
2011-09-14, 03:27:05,VALID,1009.508,VALID,0.0,VALID,104.0,VALID,0.0,VALID,22.507,VALID,118.0,VALID,0.57,
2011-09-14, 03:28:05,VALID,1009.487,VALID,0.0,VALID,104.0,VALID,0.0,VALID,22.486,VALID,115.0,VALID,0.671,
2011-09-14, 03:29:05,VALID,1009.501,VALID,0.0,VALID,104.0,VALID,0.0,VALID,22.486,VALID,115.0,VALID,0.573,
2011-09-14, 03:30:05,VALID,1009.469,VALID,0.0,VALID,104.0,VALID,0.0,VALID,22.486,VALID,115.0,VALID,0.555,
2011-09-14, 03:31:05,VALID,1009.471,VALID,0.0,VALID,104.0,VALID,0.0,VALID,22.486,VALID,115.0,VALID,0.584,
2011-09-14, 03:32:05,VALID,1009.472,VALID,0.0,VALID,104.0,VALID,0.0,VALID,22.488,VALID,115.0,VALID,0.782,
2011-09-14, 03:33:05,VALID,1009.446,VALID,0.0,VALID,104.0,VALID,0.0,VALID,22.507,VALID,115.0,VALID,0.668,
2011-09-14, 03:34:05,VALID,1009.445,VALID,0.0,VALID,104.0,VALID,0.0,VALID,22.486,VALID,115.0,VALID,0.441,
2011-09-14, 03:35:05,VALID,1009.456,VALID,0.0,VALID,104.0,VALID,0.106,VALID,22.484,VALID,115.0,VALID,0.458,
2011-09-14, 03:36:05,VALID,1009.443,VALID,0.0,VALID,104.0,VALID,0.0,VALID,22.506,VALID,115.0,VALID,0.708,
2011-09-14, 03:37:05,VALID,1009.461,VALID,0.0,VALID,104.0,VALID,0.106,VALID,22.506,VALID,115.0,VALID,0.728,
2011-09-14, 03:38:05,VALID,1009.47,VALID,0.0,VALID,104.0,VALID,0.106,VALID,22.506,VALID,115.0,VALID,0.444,
2011-09-14, 03:39:05,VALID,1009.473,VALID,0.0,VALID,104.0,VALID,0.106,VALID,22.506,VALID,115.0,VALID,0.225,
2011-09-14, 03:40:05,VALID,1009.454,VALID,0.0,VALID,104.0,VALID,0.106,VALID,22.484,VALID,115.0,VALID,0.373,
2011-09-14, 03:41:05,VALID,1009.446,VALID,0.0,VALID,104.0,VALID,0.106,VALID,22.506,VALID,115.0,VALID,0.262,